QPF
0.00 0.00 0.00 0.00 0.00 0.00 0.00 0.01 0.00 0.00 0.01 0.02 0.01 0.00 0.00 0.00 0.01 0.01 0.01 0.01 0.00 0.00 0.00 0.00 0.00 0.00 0.00 0.00 0.00 0.00 0.00 0.00 0.00 0.00 0.00 0.00 0.01 0.01 0.00 0.01 0.01 0.00
0.00 0.00 0.00 0.00 0.00 0.00 0.00 0.01 0.00 0.00 0.00 0.01 0.01 0.03 0.01 0.00 0.00 0.00 0.00 0.00 0.01 0.00 0.01 0.00 0.00 0.00 0.00 0.00 0.01 0.00 0.00 0.01 0.03 0.05 0.01 0.01 0.02 0.00 0.00 0.00 0.00 0.00
0.00 0.00 0.00 0.00 0.00 0.00 0.00 0.00 0.00 0.00 0.00 0.01 0.01 0.00 0.01 0.00 0.00 0.00 0.00 0.00 0.00 0.01 0.00 0.00 0.00 0.01 0.00 0.00 0.00 0.01 0.00 0.00 0.00 0.00 0.00 0.00 0.00 0.00 0.00 0.00 0.00 0.00
0.00 0.00 0.00 0.00 0.00 0.00 0.00 0.00 0.00 0.00 0.00 0.00 0.00 0.00 0.00 0.01 0.00 0.00 0.00 0.00 0.00 0.00 0.01 0.01 0.00 0.00 0.00 0.00 0.01 0.00 0.00 0.00 0.01 0.00 0.00 0.00 0.00 0.00 0.00 0.00 0.00 0.00
0.00 0.00 0.00 0.00 0.00 0.01 0.00 0.00 0.00 0.00 0.00 0.00 0.00 0.00 0.00 0.00 0.00 0.00 0.00 0.00 0.00 0.00 0.00 0.02 0.02 0.00 0.01 0.01 0.01 0.02 0.01 0.02 0.02 0.01 0.00 0.00 0.00 0.00 0.00 0.00 0.00 0.00
0.00 0.00 0.00 0.00 0.00 0.01 0.01 0.01 0.00 0.00 0.00 0.00 0.00 0.00 0.00 0.00 0.00 0.00 0.00 0.01 0.01 0.00 0.00 0.03 0.00 0.00 0.00 0.00 0.00 0.00 0.00 0.00 0.01 0.01 0.00 0.01 0.01 0.00 0.00 0.00 0.00 0.00
0.00 0.01 0.03 0.00 0.01 0.02 0.01 0.01 0.00 0.01 0.01 0.01 0.00 0.00 0.00 0.01 0.00 0.00 0.01 0.00 0.02 0.01 0.01 0.02 0.00 0.00 0.00 0.00 0.00 0.00 0.00 0.00 0.00 0.00 0.02 0.03 0.01 0.00 0.01 0.01 0.01 0.00
0.00 0.00 0.00 0.00 0.00 0.02 0.00 0.00 0.02 0.01 0.01 0.00 0.00 0.00 0.00 0.02 0.01 0.04 0.00 0.00 0.01 0.01 0.02 0.00 0.01 0.00 0.00 0.00 0.01 0.00 0.02 0.04 0.04 0.03 0.00 0.00 0.00 0.00 0.00 0.00 0.00 0.00
0.00 0.00 0.00 0.00 0.00 0.00 0.00 0.00 0.00 0.00 0.00 0.00 0.00 0.00 0.00 0.00 0.00 0.02 0.02 0.01 0.00 0.00 0.00 0.00 0.00 0.01 0.01 0.00 0.00 0.01 0.01 0.05 0.04 0.03 0.05 0.06 0.04 0.02 0.10 0.03 0.01 0.01
0.00 0.00 0.00 0.00 0.00 0.00 0.00 0.00 0.00 0.00 0.00 0.00 0.00 0.00 0.01 0.00 0.00 0.00 0.00 0.01 0.02 0.00 0.00 0.00 0.00 0.01 0.00 0.00 0.00 0.04 0.01 0.03 0.06 0.08 0.07 0.02 0.03 0.03 0.06 0.03 0.03 0.06
0.00 0.00 0.00 0.00 0.00 0.00 0.00 0.00 0.00 0.01 0.01 0.00 0.00 0.00 0.00 0.01 0.00 0.00 0.01 0.02 0.00 0.00 0.01 0.00 0.00 0.01 0.01 0.00 0.01 0.06 0.04 0.12 0.11 0.10 0.06 0.03 0.08 0.10 0.15 0.06 0.04 0.02
0.00 0.00 0.00 0.00 0.00 0.00 0.00 0.00 0.01 0.01 0.01 0.00 0.00 0.00 0.00 0.00 0.00 0.00 0.00 0.00 0.00 0.00 0.00 0.00 0.00 0.01 0.00 0.02 0.02 0.00 0.06 0.05 0.13 0.02 0.04 0.00 0.04 0.00 0.01 0.02 0.00 0.00
0.00 0.00 0.00 0.00 0.00 0.00 0.00 0.00 0.00 0.00 0.00 0.00 0.00 0.00 0.01 0.00 0.00 0.01 0.00 0.00 0.00 0.01 0.01 0.00 0.01 0.01 0.01 0.01 0.02 0.04 0.01 0.00 0.00 0.00 0.00 0.00 0.00 0.00 0.00 0.00 0.00 0.00
0.00 0.01 0.00 0.00 0.00 0.00 0.00 0.00 0.00 0.00 0.00 0.00 0.01 0.01 0.00 0.00 0.01 0.01 0.00 0.00 0.01 0.00 0.01 0.01 0.01 0.04 0.01 0.00 0.00 0.01 0.03 0.00 0.00 0.00 0.00 0.00 0.00 0.00 0.00 0.00 0.00 0.00
0.00 0.00 0.01 0.02 0.00 0.00 0.00 0.00 0.00 0.00 0.00 0.00 0.00 0.01 0.02 0.01 0.00 0.00 0.01 0.01 0.01 0.01 0.01 0.03 0.05 0.01 0.00 0.00 0.00 0.00 0.00 0.00 0.01 0.02 0.00 0.00 0.00 0.00 0.00 0.00 0.00 0.00
0.00 0.00 0.02 0.01 0.05 0.01 0.00 0.00 0.00 0.00 0.00 0.00 0.00 0.00 0.01 0.01 0.01 0.01 0.00 0.00 0.00 0.00 0.01 0.01 0.01 0.03 0.00 0.00 0.00 0.00 0.00 0.00 0.00 0.00 0.00 0.00 0.00 0.00 0.00 0.00 0.01 0.00
0.01 0.00 0.01 0.05 0.00 0.00 0.00 0.00 0.00 0.00 0.00 0.00 0.00 0.00 0.00 0.00 0.00 0.01 0.02 0.01 0.05 0.03 0.02 0.02 0.07 0.00 0.00 0.00 0.00 0.00 0.00 0.01 0.00 0.00 0.00 0.00 0.00 0.00 0.00 0.00 0.00 0.02
0.04 0.07 0.04 0.00 0.00 0.00 0.00 0.00 0.00 0.00 0.00 0.00 0.00 0.00 0.01 0.00 0.00 0.03 0.23 0.19 0.14 0.00 0.00 0.01 0.01 0.02 0.00 0.00 0.00 0.00 0.00 0.00 0.00 0.00 0.00 0.00 0.00 0.01 0.01 0.01 0.02 0.02
0.09 0.20 0.09 0.00 0.00 0.00 0.00 0.00 0.00 0.00 0.00 0.00 0.00 0.00 0.01 0.04 0.00 0.01 0.11 0.10 0.23 0.43 0.31 0.05 0.00 0.00 0.00 0.00 0.00 0.00 0.00 0.00 0.00 0.00 0.00 0.00 0.00 0.00 0.01 0.01 0.06 0.05
0.26 0.27 0.15 0.12 0.04 0.01 0.00 0.00 0.00 0.00 0.00 0.00 0.00 0.00 0.00 0.00 0.01 0.18 0.12 0.47 0.37 0.04 0.00 0.00 0.00 0.00 0.00 0.00 0.00 0.00 0.00 0.00 0.00 0.00 0.00 0.02 0.01 0.01 0.13 0.03 0.03 0.04
0.13 0.11 0.11 0.14 0.17 0.05 0.10 0.05 0.01 0.01 0.00 0.00 0.01 0.01 0.01 0.08 0.00 0.30 0.20 0.41 0.32 0.05 0.00 0.00 0.00 0.00 0.00 0.00 0.00 0.00 0.00 0.00 0.00 0.00 0.01 0.04 0.03 0.01 0.06 0.04 0.07 0.06
0.45 0.19 0.35 0.36 0.26 0.40 0.25 0.07 0.05 0.02 0.02 0.01 0.00 0.02 0.03 0.07 0.09 0.07 0.26 0.27 0.12 0.04 0.01 0.00 0.00 0.00 0.00 0.00 0.00 0.00 0.00 0.00 0.00 0.01 0.04 0.04 0.09 0.04 0.08 0.02 0.01 0.03
1.22 0.47 0.51 0.77 0.42 0.14 0.13 0.07 0.12 0.15 0.06 0.11 0.08 0.17 0.19 0.22 0.34 0.19 0.04 0.10 0.08 0.02 0.02 0.03 0.00 0.00 0.00 0.00 0.00 0.00 0.00 0.00 0.00 0.00 0.04 0.02 0.01 0.01 0.01 0.01 0.00 0.01
0.54 0.78 1.09 0.12 0.09 0.13 0.16 0.21 0.18 0.27 0.12 0.03 0.05 0.08 0.25 0.43 0.15 0.03 0.03 0.04 0.10 0.04 0.05 0.13 0.23 0.00 0.00 0.00 0.00 0.00 0.00 0.00 0.00 0.00 0.00 0.00 0.00 0.00 0.00 0.00 0.02 0.00
1.02 0.71 0.41 0.05 0.23 0.10 0.10 0.23 0.21 0.30 0.05 0.14 0.03 0.40 0.83 0.49 0.18 0.07 0.06 0.06 0.10 0.04 0.06 0.06 0.01 0.00 0.00 0.00 0.00 0.00 0.00 0.00 0.00 0.00 0.00 0.00 0.00 0.00 0.00 0.00 0.00 0.00
0.53 0.67 0.37 0.08 0.06 0.06 0.03 0.09 0.12 0.18 0.04 0.09 0.09 0.21 0.95 1.06 0.69 0.31 0.10 0.15 0.18 0.08 0.07 0.07 0.05 0.02 0.01 0.00 0.00 0.00 0.00 0.00 0.00 0.00 0.00 0.00 0.00 0.00 0.00 0.00 0.00 0.00
MSLP
1014.76 1014.88 1015.20 1015.40 1015.47 1015.43 1015.52 1015.84 1015.76 1015.96 1016.11 1016.03 1016.23 1016.11 1016.03 1015.88 1015.76 1015.91 1016.11 1016.16 1016.23 1016.40 1016.52 1016.55 1016.55 1016.72 1016.72 1016.84 1016.88 1017.08 1017.32 1017.32 1017.32 1017.32 1017.40 1017.32 1017.43 1017.43 1017.52 1017.32 1017.32 1017.28
1014.55 1014.64 1014.79 1014.96 1015.16 1015.16 1015.20 1015.20 1015.32 1015.43 1015.76 1015.88 1015.88 1015.79 1015.59 1015.52 1015.55 1015.64 1015.96 1016.20 1016.16 1016.20 1016.23 1016.35 1016.52 1016.64 1016.72 1016.76 1016.91 1017.20 1017.23 1017.28 1017.43 1016.91 1017.23 1017.35 1017.35 1017.28 1017.23 1017.16 1017.08 1016.84
1014.28 1014.47 1014.67 1014.91 1014.99 1015.08 1015.03 1014.96 1014.99 1015.11 1015.28 1015.32 1015.40 1015.47 1015.55 1015.28 1015.47 1015.52 1015.59 1015.84 1016.11 1016.08 1016.23 1016.35 1016.40 1016.52 1016.64 1016.67 1016.84 1017.16 1017.23 1017.32 1017.43 1017.03 1017.03 1017.23 1017.16 1017.28 1017.11 1016.91 1016.84 1016.72
1014.11 1014.11 1014.23 1014.40 1014.43 1014.59 1014.64 1014.79 1014.88 1014.91 1014.88 1015.20 1015.20 1015.11 1015.20 1015.28 1015.28 1015.47 1015.55 1015.67 1015.91 1015.99 1016.11 1016.16 1016.28 1016.32 1016.43 1016.52 1016.67 1016.96 1016.99 1016.99 1016.99 1016.96 1017.16 1017.11 1017.11 1017.08 1017.03 1016.84 1016.76 1016.64
1013.88 1013.96 1013.88 1013.96 1013.99 1014.03 1014.23 1014.52 1014.67 1014.76 1014.88 1014.76 1014.72 1014.67 1014.84 1015.11 1015.16 1015.28 1015.47 1015.64 1015.76 1015.91 1015.99 1016.20 1016.23 1016.28 1016.32 1016.47 1016.59 1016.99 1016.88 1016.96 1016.88 1016.96 1017.23 1017.40 1017.16 1017.08 1016.91 1016.79 1016.88 1016.96
1013.52 1013.55 1013.64 1013.76 1013.79 1013.96 1014.35 1014.43 1014.35 1014.40 1014.47 1014.52 1014.52 1014.35 1014.55 1014.76 1015.03 1015.11 1015.35 1015.64 1015.64 1015.76 1015.76 1015.79 1016.03 1016.03 1016.03 1016.28 1016.47 1016.72 1016.76 1016.84 1016.79 1016.91 1017.28 1017.47 1017.35 1016.96 1016.76 1016.76 1016.99 1017.03
1013.35 1013.43 1013.55 1013.55 1013.67 1013.76 1014.03 1014.16 1014.08 1014.08 1014.08 1014.16 1014.03 1014.23 1014.32 1014.67 1014.91 1015.03 1015.32 1015.40 1015.43 1015.55 1015.55 1015.64 1015.99 1016.03 1015.88 1016.03 1016.35 1016.67 1016.79 1016.84 1016.91 1017.08 1017.47 1017.43 1017.28 1017.23 1016.88 1016.91 1016.99 1017.16
1013.03 1013.11 1013.28 1013.40 1013.67 1013.76 1013.96 1013.99 1014.08 1014.16 1014.08 1014.11 1014.20 1013.99 1013.96 1014.55 1014.79 1014.84 1014.88 1014.96 1015.20 1015.59 1015.55 1015.55 1015.67 1015.88 1015.79 1015.88 1016.35 1016.64 1016.79 1016.84 1017.35 1017.52 1017.72 1017.47 1017.23 1017.40 1017.32 1017.20 1017.11 1017.32
1012.84 1013.08 1013.23 1013.43 1013.59 1013.55 1013.88 1013.76 1013.67 1013.76 1013.55 1013.88 1014.03 1013.84 1013.79 1014.08 1014.52 1014.67 1014.79 1014.96 1015.16 1015.23 1015.43 1015.55 1015.67 1015.76 1015.67 1015.84 1016.03 1016.40 1016.67 1017.03 1017.16 1017.40 1017.79 1017.67 1017.72 1017.76 1017.55 1017.52 1017.55 1017.55
1012.67 1012.76 1012.96 1013.11 1013.35 1013.23 1013.32 1013.23 1013.16 1013.35 1013.28 1013.47 1013.47 1013.52 1013.91 1013.91 1013.99 1014.52 1014.76 1014.99 1015.20 1015.23 1015.20 1015.28 1015.35 1015.59 1015.72 1015.72 1016.03 1016.23 1016.55 1016.88 1017.03 1017.11 1017.32 1017.35 1017.32 1017.35 1017.35 1017.43 1017.52 1017.59
1012.55 1012.72 1013.03 1012.99 1013.03 1012.96 1012.99 1012.91 1012.96 1013.03 1013.11 1013.32 1013.35 1013.55 1013.67 1014.03 1014.11 1014.03 1014.52 1014.84 1015.11 1015.28 1015.23 1015.43 1015.47 1015.55 1015.76 1015.88 1015.88 1016.03 1016.35 1016.64 1016.99 1017.11 1017.08 1016.99 1017.11 1017.23 1017.32 1017.52 1017.55 1017.52
1012.55 1012.59 1012.79 1012.79 1012.91 1012.88 1012.79 1012.72 1012.72 1013.03 1013.40 1013.55 1013.40 1013.52 1013.52 1013.59 1014.08 1014.08 1014.32 1014.76 1014.84 1014.96 1014.99 1015.20 1015.28 1015.43 1015.67 1015.91 1015.99 1015.96 1016.16 1016.40 1016.64 1016.79 1016.72 1016.84 1016.96 1016.91 1016.91 1016.99 1017.11 1017.11
1012.47 1012.47 1012.47 1012.55 1012.76 1012.84 1012.76 1012.72 1012.84 1013.11 1013.32 1013.47 1013.28 1013.43 1013.72 1013.72 1013.55 1013.96 1014.16 1014.47 1014.76 1014.76 1014.84 1015.03 1015.28 1015.35 1015.64 1015.79 1015.88 1015.91 1016.03 1016.28 1016.43 1016.47 1016.55 1016.67 1016.72 1016.72 1016.64 1016.64 1016.64 1016.52
1012.20 1012.08 1012.23 1012.35 1012.40 1012.59 1012.72 1012.76 1012.76 1012.88 1013.16 1013.11 1013.20 1013.43 1013.43 1013.47 1013.79 1014.23 1014.08 1014.16 1014.52 1014.64 1014.76 1014.91 1015.20 1015.40 1015.59 1015.76 1015.84 1015.88 1015.96 1016.03 1016.20 1016.40 1016.43 1016.47 1016.47 1016.40 1016.32 1016.23 1016.16 1016.16
1011.96 1012.11 1012.32 1012.35 1012.55 1012.55 1012.76 1012.91 1012.99 1012.96 1012.96 1013.16 1013.28 1013.47 1013.43 1013.40 1013.47 1013.67 1014.20 1014.32 1014.32 1014.52 1014.79 1015.03 1015.35 1015.55 1015.64 1015.76 1015.79 1015.84 1015.88 1016.03 1016.11 1016.20 1016.28 1016.35 1016.32 1016.16 1016.03 1015.99 1015.99 1015.96
1011.91 1012.20 1012.47 1012.43 1012.72 1012.99 1012.96 1013.08 1013.16 1013.20 1013.16 1013.28 1013.32 1013.23 1013.47 1013.59 1013.84 1014.11 1014.11 1014.20 1014.55 1014.76 1014.91 1015.40 1015.55 1015.84 1016.28 1016.23 1016.20 1016.03 1015.84 1015.79 1015.91 1016.08 1016.20 1016.28 1016.40 1016.40 1016.28 1015.99 1015.96 1015.96
1011.91 1012.20 1012.35 1012.72 1012.88 1013.08 1013.23 1013.35 1013.47 1013.47 1013.59 1013.67 1013.59 1013.59 1013.79 1013.84 1013.96 1014.08 1014.47 1014.55 1014.99 1015.32 1015.55 1015.64 1015.96 1016.55 1016.67 1016.64 1016.59 1016.52 1016.20 1015.99 1016.03 1016.03 1016.03 1016.16 1016.23 1016.47 1016.55 1016.35 1016.16 1016.11
1011.91 1012.08 1012.43 1012.88 1013.08 1013.32 1013.40 1013.52 1013.59 1013.76 1013.96 1014.03 1014.03 1013.99 1014.03 1014.08 1014.32 1014.79 1016.35 1016.59 1016.40 1016.03 1015.88 1015.99 1016.67 1016.99 1016.88 1016.88 1016.88 1016.79 1016.67 1016.43 1016.03 1015.88 1015.76 1015.84 1015.96 1016.23 1016.28 1016.43 1016.64 1016.43
1012.11 1012.32 1012.59 1012.91 1013.23 1013.40 1013.47 1013.59 1013.79 1014.03 1014.16 1014.28 1014.43 1014.28 1014.23 1014.52 1014.59 1015.23 1015.84 1015.99 1016.43 1017.11 1017.43 1017.11 1016.99 1017.11 1016.96 1016.88 1016.96 1016.91 1016.76 1016.47 1016.16 1016.11 1016.16 1016.08 1015.99 1016.08 1016.47 1016.59 1016.72 1016.72
1012.35 1012.64 1013.11 1013.23 1013.28 1013.47 1013.59 1013.79 1013.99 1014.20 1014.08 1014.03 1014.11 1014.20 1014.55 1014.76 1015.08 1015.72 1015.84 1015.99 1016.20 1016.32 1016.76 1017.16 1017.32 1017.40 1017.11 1017.03 1016.99 1016.88 1016.72 1016.55 1016.35 1016.28 1016.11 1016.08 1016.11 1016.28 1016.79 1016.79 1016.76 1016.88
1012.91 1013.16 1013.64 1013.67 1013.72 1013.79 1014.08 1014.32 1014.23 1014.16 1014.11 1014.08 1014.11 1014.35 1014.64 1015.11 1015.43 1015.88 1015.84 1016.08 1016.23 1016.47 1016.88 1017.23 1017.64 1017.79 1017.47 1017.23 1017.08 1016.88 1016.72 1016.52 1016.28 1016.23 1016.20 1016.28 1016.55 1016.59 1017.11 1016.67 1016.55 1016.59
1014.11 1014.11 1014.11 1014.16 1014.20 1014.28 1014.43 1014.64 1014.52 1014.35 1014.35 1014.23 1014.43 1014.64 1014.88 1014.99 1015.28 1015.64 1016.16 1016.20 1016.08 1016.47 1017.03 1017.55 1017.79 1017.79 1017.67 1017.52 1017.32 1017.03 1016.76 1016.47 1016.32 1016.35 1016.43 1016.52 1016.72 1016.72 1016.79 1016.43 1016.35 1016.52
1014.52 1015.03 1014.84 1014.28 1014.23 1014.40 1014.47 1014.52 1014.91 1014.91 1014.64 1014.59 1014.84 1015.08 1015.28 1015.32 1015.40 1015.76 1015.84 1015.96 1016.23 1016.76 1017.32 1017.84 1018.03 1018.11 1017.96 1017.67 1017.35 1017.16 1016.84 1016.64 1016.55 1016.52 1016.67 1016.79 1016.79 1016.64 1016.55 1016.52 1016.67 1016.76
1014.23 1014.40 1014.47 1014.40 1014.72 1014.91 1014.84 1014.99 1015.20 1015.08 1014.76 1014.64 1014.91 1015.23 1015.43 1015.35 1015.40 1015.67 1015.84 1015.99 1016.47 1017.08 1017.40 1018.03 1018.52 1018.32 1017.99 1017.67 1017.52 1017.28 1017.03 1017.11 1017.11 1017.08 1017.23 1017.23 1017.11 1016.91 1016.79 1016.79 1016.96 1016.99
1014.08 1014.11 1014.64 1014.67 1014.59 1014.43 1014.43 1014.84 1015.23 1015.20 1014.76 1014.67 1014.99 1015.23 1015.52 1015.52 1015.79 1015.99 1016.32 1016.43 1016.67 1016.96 1017.32 1017.84 1018.20 1018.08 1017.88 1017.67 1017.59 1017.55 1017.43 1017.43 1017.52 1017.64 1017.79 1017.79 1017.55 1017.35 1016.99 1016.84 1017.35 1017.43
1013.88 1014.28 1014.55 1014.55 1014.59 1014.67 1014.76 1014.84 1014.84 1014.91 1014.91 1015.11 1015.32 1015.47 1015.91 1016.20 1016.55 1016.47 1016.52 1016.72 1016.91 1017.28 1017.55 1017.79 1018.08 1018.23 1018.20 1017.96 1017.79 1017.79 1017.79 1017.76 1017.79 1017.99 1018.23 1018.16 1017.91 1017.72 1017.52 1017.11 1017.28 1017.64
Thickness
5799 5798 5797 5796 5796 5796 5796 5795 5795 5795 5794 5794 5794 5794 5796 5798 5800 5800 5799 5798 5799 5798 5798 5798 5797 5797 5796 5796 5795 5794 5793 5794 5794 5795 5796 5795 5794 5794 5794 5795 5796 5796
5800 5800 5799 5799 5798 5798 5799 5799 5799 5798 5797 5797 5797 5799 5800 5801 5802 5802 5801 5800 5799 5799 5800 5799 5798 5798 5797 5797 5796 5795 5794 5793 5795 5797 5797 5795 5795 5795 5795 5797 5798 5798
5801 5802 5801 5801 5800 5800 5801 5802 5802 5801 5801 5801 5801 5801 5802 5803 5803 5803 5803 5802 5801 5800 5801 5799 5799 5798 5798 5798 5797 5795 5795 5794 5794 5797 5796 5795 5796 5795 5797 5798 5799 5800
5803 5804 5804 5804 5804 5804 5804 5804 5803 5803 5803 5803 5803 5804 5804 5805 5804 5804 5804 5803 5802 5802 5801 5800 5800 5800 5799 5800 5798 5796 5796 5796 5796 5797 5796 5795 5796 5796 5797 5798 5799 5800
5805 5806 5806 5806 5807 5806 5806 5805 5804 5805 5805 5804 5806 5808 5807 5806 5805 5805 5805 5803 5803 5802 5802 5801 5801 5801 5801 5800 5799 5797 5796 5797 5797 5797 5794 5793 5795 5796 5797 5798 5797 5797
5806 5807 5807 5807 5808 5808 5806 5805 5806 5807 5807 5808 5809 5809 5809 5808 5806 5806 5804 5803 5804 5803 5803 5803 5802 5802 5802 5801 5799 5798 5797 5796 5797 5796 5793 5792 5793 5795 5797 5798 5796 5795
5807 5808 5808 5808 5808 5808 5807 5806 5808 5809 5809 5809 5810 5811 5811 5809 5807 5807 5805 5805 5805 5804 5805 5805 5803 5802 5803 5802 5800 5797 5797 5796 5795 5794 5791 5792 5793 5793 5796 5796 5796 5795
5809 5809 5808 5808 5808 5808 5807 5808 5808 5809 5810 5810 5810 5812 5813 5810 5807 5807 5807 5807 5806 5804 5804 5804 5803 5803 5803 5803 5800 5797 5796 5795 5793 5791 5789 5791 5792 5791 5792 5793 5793 5793
5809 5809 5808 5807 5808 5808 5808 5809 5810 5812 5812 5812 5812 5814 5814 5812 5810 5809 5808 5807 5806 5804 5805 5804 5803 5802 5803 5802 5800 5798 5796 5794 5793 5791 5788 5789 5790 5789 5790 5790 5789 5788
5809 5809 5808 5808 5808 5809 5811 5812 5813 5814 5814 5815 5814 5815 5814 5812 5812 5810 5808 5806 5805 5804 5804 5804 5803 5802 5802 5801 5800 5799 5797 5794 5792 5791 5789 5790 5791 5790 5790 5789 5787 5787
5808 5808 5808 5808 5809 5810 5812 5813 5815 5815 5815 5814 5815 5814 5813 5812 5811 5811 5808 5806 5804 5803 5803 5802 5802 5802 5800 5799 5799 5798 5797 5795 5792 5791 5791 5792 5792 5791 5790 5789 5788 5788
5807 5808 5807 5808 5809 5810 5812 5814 5814 5814 5812 5812 5813 5813 5812 5811 5811 5810 5808 5806 5803 5804 5803 5802 5801 5800 5798 5797 5797 5797 5796 5795 5793 5792 5793 5793 5792 5791 5791 5790 5789 5789
5806 5807 5808 5809 5809 5810 5811 5813 5814 5813 5811 5811 5813 5812 5811 5811 5811 5808 5808 5806 5804 5804 5803 5802 5801 5799 5797 5796 5796 5797 5796 5794 5793 5792 5792 5792 5791 5792 5792 5791 5791 5792
5806 5808 5808 5809 5809 5810 5810 5811 5812 5812 5811 5811 5812 5811 5809 5811 5810 5807 5807 5806 5804 5803 5803 5801 5800 5797 5795 5795 5795 5795 5795 5794 5793 5792 5792 5791 5791 5792 5793 5792 5792 5792
5806 5806 5806 5807 5808 5808 5808 5808 5808 5809 5809 5810 5809 5808 5808 5809 5808 5805 5804 5803 5802 5802 5801 5799 5796 5793 5792 5792 5793 5793 5794 5793 5793 5792 5791 5791 5790 5791 5792 5793 5792 5792
5805 5804 5804 5804 5804 5803 5804 5804 5803 5804 5805 5805 5806 5806 5806 5805 5804 5802 5801 5800 5799 5797 5795 5794 5792 5789 5787 5787 5788 5789 5791 5792 5791 5790 5789 5788 5788 5788 5788 5790 5791 5790
5803 5802 5802 5801 5800 5799 5799 5799 5798 5799 5800 5800 5801 5802 5801 5801 5800 5797 5795 5794 5793 5791 5790 5789 5786 5783 5781 5782 5783 5784 5786 5788 5787 5787 5787 5786 5785 5784 5784 5785 5785 5785
5801 5801 5800 5797 5795 5795 5794 5794 5794 5794 5794 5793 5794 5795 5795 5795 5795 5790 5783 5780 5780 5780 5781 5781 5779 5777 5777 5777 5778 5778 5779 5782 5784 5785 5785 5784 5784 5782 5782 5781 5779 5779
5798 5798 5796 5793 5791 5791 5791 5791 5789 5789 5788 5788 5788 5789 5790 5789 5787 5784 5780 5777 5776 5774 5773 5774 5772 5772 5773 5774 5773 5774 5776 5778 5780 5781 5780 5780 5781 5780 5778 5776 5774 5773
5793 5791 5788 5786 5787 5787 5786 5786 5785 5785 5785 5786 5786 5785 5784 5783 5779 5778 5777 5777 5776 5774 5770 5768 5767 5766 5768 5769 5769 5771 5772 5775 5777 5777 5777 5776 5777 5776 5773 5771 5771 5770
5783 5782 5779 5779 5780 5779 5779 5779 5780 5782 5782 5783 5783 5781 5779 5778 5775 5774 5773 5772 5771 5769 5765 5761 5760 5761 5762 5764 5765 5767 5769 5771 5773 5773 5773 5772 5771 5770 5768 5768 5769 5768
5771 5771 5771 5774 5775 5775 5776 5776 5776 5778 5778 5777 5777 5775 5774 5775 5772 5769 5768 5768 5767 5765 5760 5756 5755 5755 5756 5757 5759 5761 5764 5767 5767 5767 5767 5766 5765 5765 5764 5766 5766 5765
5766 5764 5767 5772 5772 5771 5771 5771 5770 5770 5772 5772 5771 5769 5770 5771 5770 5767 5765 5765 5764 5760 5755 5751 5748 5748 5750 5752 5753 5756 5759 5760 5761 5761 5760 5759 5760 5760 5760 5761 5761 5760
5764 5763 5765 5768 5767 5765 5764 5764 5763 5764 5768 5769 5767 5766 5767 5768 5766 5763 5761 5761 5758 5753 5750 5747 5743 5742 5744 5746 5748 5750 5752 5752 5752 5753 5752 5751 5753 5754 5755 5755 5755 5754
5762 5760 5759 5761 5761 5762 5763 5761 5759 5760 5764 5764 5763 5761 5761 5760 5759 5756 5754 5753 5751 5749 5746 5743 5740 5738 5739 5742 5743 5744 5744 5745 5744 5744 5743 5743 5745 5746 5748 5750 5750 5748
5758 5755 5754 5756 5755 5755 5757 5756 5755 5757 5758 5757 5757 5755 5752 5751 5750 5749 5748 5748 5745 5742 5739 5737 5736 5735 5735 5736 5737 5737 5737 5738 5737 5736 5735 5735 5737 5739 5741 5743 5744 5743